Погода в Симаве

Турция     39°05′21″N   28°58′39″E
темп.,
°C
ветер,
м/с
пор.,
м/с
влажн.,
%
обл.,
%
осадки,
мм/ч
давл.,
гПа
погр.,
м
22 января, сб
сб2200:000ю25100100 8.3 1017244
03:000юв2299100 14.6 1016155
06:000ююв2299100 0.8 1014134
09:000сз11100100 1.4 1013141
12:00−2с1299100 0.9 1013197
15:00−4с3496100 6.9 1013266
18:00−5с3595100 2.8 1013316
21:00−9с3396100 3.3 101623
23 января, вс
вс2300:00−8с3395100 0.1 101681
03:00−9с51092100 0.4 1017466
06:00−10с3693100 0.1 1018272
09:00−13с2296100 0.1 102130
12:00−7ссз247899 0.1 1019787
15:00−5ссз3569100 0.2 10181147
18:00−7ссз359368 0.3 1020280
21:00−13с2297100 0.3 102413
24 января, пн
пн2400:00−13ссв229758 0.1 102515
03:00−15ссв2296100 0.1 102612
06:00−14св2295100 0.0 102611
09:00−14св22905 0.0 102712
12:00−6всв226878 0.0 1024332
15:00−5в236299 0.0 1022685
18:00−8ссв3384100 0.0 102328
21:00−10ссв4485100 0.0 102552
25 января, вт
вт2500:00−10ссв3489100 0.0 102575
03:00−10ссв4590100 0.0 1024102
06:00−10с4894100 0.3 1023280
09:00−9с51193100 1.1 1023603
12:00−7ссв6118799 0.6 1023898
15:00−5ссв61077100 0.7 10211235
18:00−7ссв599148 0.3 1022344
21:00−12с449580 0.3 102549
26 января, ср
ср2600:00−12с4496100 0.0 102560
03:00−13с449651 0.1 102448
06:00−15с4497100 0.0 102450
09:00−12с459499 0.0 102383
12:00−6ссз588088 0.0 1021850
15:00−5с577599 0.0 10201069
18:00−9с33895 0.0 102226
21:00−13с339644 0.0 102620